Location: Newark
(3.0500°N, 36.0167°E)
Time: 17:38:36
(UTC+00:00)

Transit 2A Rocket - Pass Details

Date: 19 August 2019
Orbit: 593 x 910 km, 66.7° (Epoch: 15 October)

Event Time Altitude Azimuth Distance (km) Brightness Sun altitude
Rises 16:27:38 0° 212° (SSW) 3,529 8.7 -11.0°
Reaches altitude 10° 16:30:16 10° 218° (SW) 2,591 8.1 -11.6°
Maximum altitude 16:36:02 46° 289° (WNW) 1,182 6.5 -13.0°
Drops below altitude 10° 16:41:40 10° 2° (N) 2,510 7.8 -14.4°
Sets 16:44:11 0° 8° (N) 3,409 8.4 -15.0°
